Time,TemperatureF,DewpointF,PressureIn,WindDirection,WindDirectionDegrees,WindSpeedMPH,WindSpeedGustMPH,Humidity,HourlyPrecipIn,Conditions,Clouds,dailyrainin,SoftwareType,DateUTC
2013-03-31 00:03:00,37.0,-99.9,30.10,North,0,0.0,-999.0,47,-99.99,,,-99.99,,2013-03-31 04:03:00,
2013-03-31 00:13:00,36.0,19.0,30.10,SSW,200,5.0,-999.0,51,-99.99,,,-99.99,,2013-03-31 04:13:00,
2013-03-31 00:23:00,34.0,23.0,30.11,WSW,250,6.0,-999.0,64,-99.99,,,-99.99,,2013-03-31 04:23:00,
2013-03-31 00:33:00,36.0,21.0,30.11,West,260,5.0,-999.0,55,-99.99,,,-99.99,,2013-03-31 04:33:00,
2013-03-31 00:42:00,36.0,21.0,30.11,SW,230,5.0,-999.0,55,-99.99,,,-99.99,,2013-03-31 04:42:00,
2013-03-31 00:52:00,36.0,21.0,30.11,West,260,3.0,-999.0,55,-99.99,,,-99.99,,2013-03-31 04:52:00,
2013-03-31 01:02:00,36.0,21.0,30.11,West,260,3.0,-999.0,55,-99.99,,,-99.99,,2013-03-31 05:02:00,
2013-03-31 01:12:00,36.0,21.0,30.11,WSW,250,3.0,-999.0,55,-99.99,,,-99.99,,2013-03-31 05:12:00,
2013-03-31 01:22:00,34.0,21.0,30.11,North,0,0.0,-999.0,59,-99.99,,,-99.99,,2013-03-31 05:22:00,
2013-03-31 01:32:00,32.0,21.0,30.11,North,0,0.0,-999.0,63,-99.99,,,-99.99,,2013-03-31 05:32:00,
2013-03-31 01:42:00,34.0,25.0,30.11,North,0,0.0,-999.0,69,-99.99,,,-99.99,,2013-03-31 05:42:00,
2013-03-31 01:52:00,34.0,25.0,30.11,North,0,0.0,-999.0,69,-99.99,,,-99.99,,2013-03-31 05:52:00,
2013-03-31 02:02:00,34.0,25.0,30.11,North,0,0.0,-999.0,69,-99.99,,,-99.99,,2013-03-31 06:02:00,
2013-03-31 02:12:00,32.0,25.0,30.11,North,0,0.0,-999.0,74,-99.99,,,-99.99,,2013-03-31 06:12:00,
2013-03-31 02:22:00,30.0,21.0,30.10,North,0,0.0,-999.0,68,-99.99,,,-99.99,,2013-03-31 06:22:00,
2013-03-31 02:32:00,30.0,21.0,30.10,North,0,0.0,-999.0,68,-99.99,,,-99.99,,2013-03-31 06:32:00,
2013-03-31 02:42:00,30.0,21.0,30.10,NW,320,3.0,-999.0,68,-99.99,,,-99.99,,2013-03-31 06:42:00,
2013-03-31 02:52:00,28.0,21.0,30.10,North,0,0.0,-999.0,74,-99.99,,,-99.99,,2013-03-31 06:52:00,
2013-03-31 03:02:00,28.0,21.0,30.10,North,0,0.0,-999.0,74,-99.99,,,-99.99,,2013-03-31 07:02:00,
2013-03-31 03:12:00,28.0,21.0,30.10,North,0,0.0,-999.0,74,-99.99,,,-99.99,,2013-03-31 07:12:00,
2013-03-31 03:22:00,28.0,21.0,30.10,West,280,3.0,-999.0,74,-99.99,,,-99.99,,2013-03-31 07:22:00,
2013-03-31 03:33:00,28.0,21.0,30.10,North,0,0.0,-999.0,74,-99.99,,,-99.99,,2013-03-31 07:33:00,
2013-03-31 03:42:00,28.0,21.0,30.10,North,0,0.0,-999.0,74,-99.99,,,-99.99,,2013-03-31 07:42:00,
2013-03-31 03:52:00,28.0,21.0,30.10,North,0,0.0,-999.0,74,-99.99,,,-99.99,,2013-03-31 07:52:00,
2013-03-31 04:02:00,28.0,21.0,30.10,North,0,0.0,-999.0,74,-99.99,,,-99.99,,2013-03-31 08:02:00,
2013-03-31 04:12:00,28.0,21.0,30.09,North,0,0.0,-999.0,74,-99.99,,,-99.99,,2013-03-31 08:12:00,
2013-03-31 04:22:00,28.0,21.0,30.09,North,0,0.0,-999.0,74,-99.99,,,-99.99,,2013-03-31 08:22:00,
2013-03-31 04:32:00,28.0,21.0,30.09,North,0,0.0,-999.0,74,-99.99,,,-99.99,,2013-03-31 08:32:00,
2013-03-31 04:42:00,28.0,21.0,30.08,North,0,0.0,-999.0,74,-99.99,,,-99.99,,2013-03-31 08:42:00,
2013-03-31 04:52:00,28.0,21.0,30.08,North,0,0.0,-999.0,74,-99.99,,,-99.99,,2013-03-31 08:52:00,
2013-03-31 05:02:00,28.0,21.0,30.08,North,0,0.0,-999.0,74,-99.99,,,-99.99,,2013-03-31 09:02:00,
2013-03-31 05:12:00,28.0,23.0,30.08,North,0,0.0,-999.0,79,-99.99,,,-99.99,,2013-03-31 09:12:00,
2013-03-31 05:22:00,28.0,25.0,30.08,North,0,0.0,-999.0,86,-99.99,,,-99.99,,2013-03-31 09:22:00,
2013-03-31 05:33:00,28.0,21.0,30.08,North,0,0.0,-999.0,74,-99.99,,,-99.99,,2013-03-31 09:33:00,
2013-03-31 05:42:00,28.0,21.0,30.07,North,0,0.0,-999.0,74,-99.99,,,-99.99,,2013-03-31 09:42:00,
2013-03-31 05:53:00,27.0,21.0,30.07,North,0,0.0,-999.0,79,-99.99,,,-99.99,,2013-03-31 09:53:00,
2013-03-31 06:03:00,27.0,21.0,30.07,North,0,0.0,-999.0,79,-99.99,,,-99.99,,2013-03-31 10:03:00,
2013-03-31 06:13:00,27.0,21.0,30.07,North,0,0.0,-999.0,79,-99.99,,,-99.99,,2013-03-31 10:13:00,
2013-03-31 06:24:00,27.0,21.0,30.07,North,0,0.0,-999.0,79,-99.99,,,-99.99,,2013-03-31 10:24:00,
2013-03-31 06:32:00,27.0,21.0,30.07,North,0,0.0,-999.0,79,-99.99,,,-99.99,,2013-03-31 10:32:00,
2013-03-31 06:42:00,27.0,21.0,30.07,North,0,0.0,-999.0,79,-99.99,,,-99.99,,2013-03-31 10:42:00,
2013-03-31 06:53:00,27.0,21.0,30.07,North,0,0.0,-999.0,79,-99.99,,,-99.99,,2013-03-31 10:53:00,
2013-03-31 07:03:00,27.0,21.0,30.07,North,0,0.0,-999.0,79,-99.99,,,-99.99,,2013-03-31 11:03:00,
2013-03-31 07:12:00,27.0,21.0,30.06,North,0,0.0,-999.0,79,-99.99,,,-99.99,,2013-03-31 11:12:00,
2013-03-31 07:23:00,28.0,21.0,30.06,North,0,0.0,-999.0,74,-99.99,,,-99.99,,2013-03-31 11:23:00,
2013-03-31 07:32:00,28.0,23.0,30.06,North,0,0.0,-999.0,79,-99.99,,,-99.99,,2013-03-31 11:32:00,
2013-03-31 07:42:00,28.0,23.0,30.06,North,0,0.0,-999.0,79,-99.99,,,-99.99,,2013-03-31 11:42:00,
2013-03-31 07:52:00,28.0,25.0,30.06,North,0,0.0,-999.0,86,-99.99,,,-99.99,,2013-03-31 11:52:00,
2013-03-31 08:03:00,28.0,25.0,30.06,North,0,0.0,-999.0,86,-99.99,,,-99.99,,2013-03-31 12:03:00,
2013-03-31 08:12:00,30.0,25.0,30.06,North,0,0.0,-999.0,80,-99.99,,,-99.99,,2013-03-31 12:12:00,
2013-03-31 08:22:00,30.0,27.0,30.06,North,0,0.0,-999.0,86,-99.99,,,-99.99,,2013-03-31 12:22:00,
2013-03-31 08:33:00,32.0,25.0,30.05,North,0,0.0,-999.0,74,-99.99,,,-99.99,,2013-03-31 12:33:00,
2013-03-31 08:42:00,32.0,25.0,30.05,North,0,0.0,-999.0,74,-99.99,,,-99.99,,2013-03-31 12:42:00,
2013-03-31 08:52:00,34.0,25.0,30.05,North,0,0.0,-999.0,69,-99.99,,,-99.99,,2013-03-31 12:52:00,
2013-03-31 09:02:00,34.0,25.0,30.05,North,0,0.0,-999.0,69,-99.99,,,-99.99,,2013-03-31 13:02:00,
2013-03-31 09:12:00,34.0,25.0,30.04,North,0,0.0,-999.0,69,-99.99,,,-99.99,,2013-03-31 13:12:00,
2013-03-31 09:22:00,36.0,25.0,30.04,North,0,0.0,-999.0,64,-99.99,,,-99.99,,2013-03-31 13:22:00,
2013-03-31 09:32:00,36.0,27.0,30.03,North,0,0.0,-999.0,69,-99.99,,,-99.99,,2013-03-31 13:32:00,
2013-03-31 09:42:00,37.0,27.0,30.03,North,0,0.0,-999.0,64,-99.99,,,-99.99,,2013-03-31 13:42:00,
2013-03-31 09:52:00,37.0,27.0,30.02,North,0,0.0,-999.0,64,-99.99,,,-99.99,,2013-03-31 13:52:00,
2013-03-31 10:02:00,37.0,27.0,30.02,North,0,0.0,-999.0,64,-99.99,,,-99.99,,2013-03-31 14:02:00,
2013-03-31 10:12:00,39.0,27.0,30.02,North,0,0.0,-999.0,60,-99.99,,,-99.99,,2013-03-31 14:12:00,
2013-03-31 10:22:00,43.0,27.0,30.01,North,0,0.0,-999.0,52,-99.99,,,-99.99,,2013-03-31 14:22:00,
2013-03-31 10:33:00,45.0,25.0,30.01,North,0,0.0,-999.0,45,-99.99,,,-99.99,,2013-03-31 14:33:00,
2013-03-31 10:42:00,46.0,25.0,30.01,South,170,5.0,-999.0,42,-99.99,,,-99.99,,2013-03-31 14:42:00,
2013-03-31 10:52:00,48.0,23.0,30.01,South,170,7.0,-999.0,36,-99.99,,,-99.99,,2013-03-31 14:52:00,
2013-03-31 11:03:00,48.0,23.0,30.01,South,170,7.0,-999.0,36,-99.99,,,-99.99,,2013-03-31 15:03:00,
2013-03-31 11:13:00,50.0,21.0,30.00,South,190,7.0,-999.0,31,-99.99,,,-99.99,,2013-03-31 15:13:00,
2013-03-31 11:22:00,52.0,21.0,29.99,South,170,10.0,16.0,29,-99.99,,,-99.99,,2013-03-31 15:22:00,
2013-03-31 11:33:00,52.0,21.0,29.99,South,170,10.0,-999.0,29,-99.99,,,-99.99,,2013-03-31 15:33:00,
2013-03-31 11:43:00,52.0,21.0,29.99,South,170,13.0,16.0,29,-99.99,,,-99.99,,2013-03-31 15:43:00,
2013-03-31 11:53:00,52.0,21.0,29.98,SSE,150,9.0,-999.0,29,-99.99,,,-99.99,,2013-03-31 15:53:00,
2013-03-31 12:03:00,52.0,21.0,29.98,SSE,150,9.0,-999.0,29,-99.99,,,-99.99,,2013-03-31 16:03:00,
2013-03-31 12:13:00,52.0,21.0,29.97,SSE,150,12.0,-999.0,29,-99.99,,,-99.99,,2013-03-31 16:13:00,
2013-03-31 12:23:00,52.0,23.0,29.96,SSE,150,7.0,16.0,32,-99.99,,,-99.99,,2013-03-31 16:23:00,
2013-03-31 12:33:00,54.0,21.0,29.95,SSE,150,13.0,17.0,27,-99.99,,,-99.99,,2013-03-31 16:33:00,
2013-03-31 12:43:00,54.0,23.0,29.95,SSE,160,10.0,16.0,30,-99.99,,,-99.99,,2013-03-31 16:43:00,
2013-03-31 12:53:00,54.0,21.0,29.94,South,170,14.0,18.0,27,-99.99,,,-99.99,,2013-03-31 16:53:00,
2013-03-31 13:03:00,54.0,21.0,29.94,South,170,14.0,18.0,27,-99.99,,,-99.99,,2013-03-31 17:03:00,
2013-03-31 13:12:00,54.0,21.0,29.93,South,180,16.0,21.0,27,-99.99,,,-99.99,,2013-03-31 17:12:00,
2013-03-31 13:23:00,54.0,21.0,29.93,South,170,17.0,24.0,27,-99.99,,,-99.99,,2013-03-31 17:23:00,
2013-03-31 13:32:00,54.0,21.0,29.92,South,170,12.0,22.0,27,-99.99,,,-99.99,,2013-03-31 17:32:00,
2013-03-31 13:43:00,54.0,23.0,29.92,South,170,9.0,23.0,30,-99.99,,,-99.99,,2013-03-31 17:43:00,
2013-03-31 13:52:00,54.0,23.0,29.91,South,190,16.0,22.0,30,-99.99,,,-99.99,,2013-03-31 17:52:00,
2013-03-31 14:03:00,54.0,23.0,29.91,South,190,16.0,22.0,30,-99.99,,,-99.99,,2013-03-31 18:03:00,
2013-03-31 14:13:00,55.0,23.0,29.90,South,180,21.0,25.0,28,-99.99,,,-99.99,,2013-03-31 18:13:00,
2013-03-31 14:22:00,54.0,23.0,29.89,South,180,17.0,27.0,30,-99.99,,,-99.99,,2013-03-31 18:22:00,
2013-03-31 14:32:00,54.0,23.0,29.89,South,180,16.0,24.0,30,-99.99,,,-99.99,,2013-03-31 18:32:00,
2013-03-31 14:42:00,54.0,23.0,29.88,South,170,16.0,23.0,30,-99.99,,,-99.99,,2013-03-31 18:42:00,
2013-03-31 14:52:00,55.0,23.0,29.88,South,190,12.0,24.0,28,-99.99,,,-99.99,,2013-03-31 18:52:00,
2013-03-31 15:03:00,55.0,23.0,29.88,South,190,12.0,24.0,28,-99.99,,,-99.99,,2013-03-31 19:03:00,
2013-03-31 15:11:00,54.0,23.0,29.87,South,170,15.0,24.0,30,-99.99,,,-99.99,,2013-03-31 19:11:00,
2013-03-31 15:21:00,54.0,21.0,29.86,South,170,15.0,27.0,27,-99.99,,,-99.99,,2013-03-31 19:21:00,
2013-03-31 15:32:00,54.0,23.0,29.86,South,170,16.0,22.0,30,-99.99,,,-99.99,,2013-03-31 19:32:00,
2013-03-31 15:41:00,54.0,23.0,29.85,South,180,12.0,16.0,30,-99.99,,,-99.99,,2013-03-31 19:41:00,
2013-03-31 15:53:00,54.0,23.0,29.84,South,170,10.0,20.0,30,-99.99,,,-99.99,,2013-03-31 19:53:00,
2013-03-31 16:03:00,54.0,23.0,29.84,South,170,10.0,20.0,30,-99.99,,,-99.99,,2013-03-31 20:03:00,
2013-03-31 16:12:00,55.0,25.0,29.84,South,170,9.0,-999.0,30,-99.99,,,-99.99,,2013-03-31 20:12:00,
2013-03-31 16:23:00,55.0,25.0,29.83,South,170,18.0,23.0,30,-99.99,,,-99.99,,2013-03-31 20:23:00,
2013-03-31 16:33:00,55.0,25.0,29.83,South,180,15.0,24.0,30,-99.99,,,-99.99,,2013-03-31 20:33:00,
2013-03-31 16:43:00,55.0,25.0,29.83,South,180,14.0,28.0,30,-99.99,,,-99.99,,2013-03-31 20:43:00,
2013-03-31 16:52:00,55.0,25.0,29.82,South,180,15.0,28.0,30,-99.99,,,-99.99,,2013-03-31 20:52:00,
2013-03-31 17:03:00,55.0,25.0,29.82,South,180,15.0,28.0,30,-99.99,,,-99.99,,2013-03-31 21:03:00,
2013-03-31 17:12:00,55.0,27.0,29.82,South,180,10.0,22.0,32,-99.99,,,-99.99,,2013-03-31 21:12:00,
2013-03-31 17:22:00,54.0,28.0,29.82,South,180,21.0,29.0,37,-99.99,,,-99.99,,2013-03-31 21:22:00,
2013-03-31 17:34:00,54.0,30.0,29.82,South,190,17.0,28.0,40,-99.99,,,-99.99,,2013-03-31 21:34:00,
2013-03-31 17:43:00,54.0,30.0,29.82,South,190,13.0,27.0,40,-99.99,,,-99.99,,2013-03-31 21:43:00,
2013-03-31 17:53:00,54.0,30.0,29.82,South,170,14.0,22.0,40,-99.99,,,-99.99,,2013-03-31 21:53:00,
2013-03-31 18:04:00,54.0,30.0,29.82,South,170,14.0,22.0,40,-99.99,,,-99.99,,2013-03-31 22:04:00,
2013-03-31 18:12:00,54.0,30.0,29.81,South,180,14.0,21.0,40,-99.99,,,-99.99,,2013-03-31 22:12:00,
2013-03-31 18:22:00,52.0,30.0,29.82,South,190,15.0,28.0,43,-99.99,,,-99.99,,2013-03-31 22:22:00,
2013-03-31 18:32:00,52.0,32.0,29.82,South,180,21.0,27.0,46,-99.99,,,-99.99,,2013-03-31 22:32:00,
2013-03-31 18:42:00,52.0,34.0,29.82,South,190,16.0,27.0,50,-99.99,,,-99.99,,2013-03-31 22:42:00,
2013-03-31 18:52:00,48.0,36.0,29.82,South,180,21.0,29.0,61,-99.99,,,-99.99,,2013-03-31 22:52:00,
2013-03-31 19:03:00,48.0,36.0,29.82,South,180,21.0,29.0,61,-99.99,,,-99.99,,2013-03-31 23:03:00,
2013-03-31 19:12:00,48.0,36.0,29.82,SSE,160,16.0,24.0,61,-99.99,,,-99.99,,2013-03-31 23:12:00,
2013-03-31 19:21:00,46.0,37.0,29.81,SSE,160,10.0,22.0,70,-99.99,,,-99.99,,2013-03-31 23:21:00,
2013-03-31 19:31:00,46.0,37.0,29.81,South,170,14.0,18.0,70,-99.99,,,-99.99,,2013-03-31 23:31:00,
2013-03-31 19:41:00,46.0,37.0,29.81,South,170,14.0,18.0,70,-99.99,,,-99.99,,2013-03-31 23:41:00,
2013-03-31 19:53:00,46.0,36.0,29.80,South,180,15.0,20.0,65,-99.99,,,-99.99,,2013-03-31 23:53:00,
2013-03-31 20:02:00,46.0,36.0,29.80,South,180,15.0,20.0,65,-99.99,,,-99.99,,2013-04-01 00:02:00,
2013-03-31 20:11:00,46.0,37.0,29.80,SSE,160,12.0,22.0,70,-99.99,,,-99.99,,2013-04-01 00:11:00,
2013-03-31 20:21:00,46.0,37.0,29.79,SSE,160,10.0,16.0,70,-99.99,,,-99.99,,2013-04-01 00:21:00,
2013-03-31 20:31:00,46.0,37.0,29.79,SE,130,7.0,24.0,70,-99.99,,,-99.99,,2013-04-01 00:31:00,
2013-03-31 20:41:00,46.0,37.0,29.79,SSE,150,7.0,24.0,70,-99.99,,,-99.99,,2013-04-01 00:41:00,
2013-03-31 20:52:00,45.0,36.0,29.78,SSE,160,10.0,17.0,70,-99.99,,,-99.99,,2013-04-01 00:52:00,
2013-03-31 21:03:00,45.0,36.0,29.78,SSE,160,10.0,17.0,70,-99.99,,,-99.99,,2013-04-01 01:03:00,
2013-03-31 21:11:00,46.0,36.0,29.77,SE,140,8.0,17.0,65,-99.99,,,-99.99,,2013-04-01 01:11:00,
2013-03-31 21:21:00,46.0,36.0,29.77,SE,140,7.0,17.0,65,-99.99,,,-99.99,,2013-04-01 01:21:00,
2013-03-31 21:31:00,46.0,36.0,29.77,SSE,150,12.0,17.0,65,-99.99,,,-99.99,,2013-04-01 01:31:00,
2013-03-31 21:42:00,46.0,36.0,29.76,SE,140,9.0,17.0,65,-99.99,,,-99.99,,2013-04-01 01:42:00,
2013-03-31 21:52:00,45.0,36.0,29.76,ESE,120,7.0,17.0,70,-99.99,,,-99.99,,2013-04-01 01:52:00,
2013-03-31 22:03:00,45.0,36.0,29.76,ESE,120,7.0,-999.0,70,-99.99,,,-99.99,,2013-04-01 02:03:00,
2013-03-31 22:11:00,45.0,37.0,29.75,SE,130,6.0,-999.0,75,-99.99,,,-99.99,,2013-04-01 02:11:00,
2013-03-31 22:21:00,45.0,37.0,29.76,SE,130,5.0,-999.0,75,-99.99,,,-99.99,,2013-04-01 02:21:00,
2013-03-31 22:31:00,45.0,37.0,29.76,SSE,160,7.0,10.0,75,-99.99,,,-99.99,,2013-04-01 02:31:00,
2013-03-31 22:41:00,45.0,37.0,29.75,SE,130,5.0,-999.0,75,-99.99,,,-99.99,,2013-04-01 02:41:00,
2013-03-31 22:52:00,43.0,37.0,29.75,South,170,6.0,-999.0,81,-99.99,,,-99.99,,2013-04-01 02:52:00,
2013-03-31 23:03:00,43.0,37.0,29.75,South,170,6.0,-999.0,81,-99.99,,,-99.99,,2013-04-01 03:03:00,
2013-03-31 23:12:00,43.0,37.0,29.73,North,0,0.0,-999.0,81,-99.99,,,-99.99,,2013-04-01 03:12:00,
2013-03-31 23:22:00,43.0,39.0,29.73,North,0,0.0,-999.0,86,-99.99,,,-99.99,,2013-04-01 03:22:00,
2013-03-31 23:34:00,43.0,39.0,29.72,North,0,0.0,-999.0,86,-99.99,,,-99.99,,2013-04-01 03:34:00,
2013-03-31 23:43:00,43.0,39.0,29.72,North,0,0.0,-999.0,86,-99.99,,,-99.99,,2013-04-01 03:43:00,
2013-03-31 23:53:00,41.0,39.0,29.71,North,0,0.0,-999.0,93,-99.99,,,-99.99,,2013-04-01 03:53:00,